Vorticity
9 7 7 6 6 6 5 5 4 4 4 5 5 6 7 8 8 8 7 7 7 8
5 3 5 8 7 6 6 6 6 5 5 6 5 5 5 5 6 7 6 6 6 6
3 6 14 11 9 9 8 7 6 6 5 5 4 4 4 4 3 4 6 6 6 6
5 8 11 11 9 8 8 8 7 6 6 6 6 5 4 3 3 4 4 5 6 7
7 6 7 13 10 9 8 8 7 7 7 6 5 5 4 5 5 4 4 5 6 8
6 9 6 10 11 9 7 6 6 6 6 6 5 5 5 5 6 5 5 5 6 7
10 9 5 5 10 10 8 7 6 6 6 6 6 6 6 5 5 5 5 5 4 5
10 9 7 7 7 9 9 7 6 5 5 5 5 5 5 4 5 5 6 4 3 4
12 11 9 9 9 9 8 7 6 6 5 5 4 4 4 5 6 5 6 7 4 4
11 11 11 10 10 9 8 7 6 6 5 4 4 5 5 6 6 7 8 8 5 4
14 14 13 12 12 11 10 8 8 8 6 6 6 7 7 8 10 10 8 5 6 5
9 8 9 10 10 11 12 12 11 10 9 9 9 11 12 9 6 7 8 7 8 14
12 12 12 12 12 12 11 11 11 11 11 10 11 13 13 15 17 20 21 20 20 17
12 12 13 13 14 15 15 15 14 14 12 10 8 7 7 8 9 9 8 6 6 6
Height
3072 3070 3069 3068 3067 3066 3064 3063 3061 3059 3057 3054 3053 3051 3048 3046 3044 3042 3039 3036 3033 3032
3064 3063 3063 3061 3060 3059 3057 3056 3054 3052 3050 3048 3046 3044 3042 3040 3038 3035 3032 3030 3027 3024
3056 3054 3053 3052 3051 3050 3049 3048 3047 3045 3043 3040 3038 3036 3034 3032 3029 3027 3025 3022 3021 3018
3046 3045 3043 3042 3041 3041 3040 3039 3038 3036 3034 3032 3029 3027 3025 3023 3022 3020 3018 3014 3012 3011
3037 3035 3034 3033 3032 3031 3029 3029 3028 3026 3024 3022 3020 3018 3016 3015 3012 3010 3009 3007 3004 3002
3028 3026 3024 3023 3022 3021 3020 3018 3016 3015 3013 3012 3010 3008 3006 3004 3002 3000 2998 2997 2995 2992
3017 3016 3015 3013 3011 3010 3009 3007 3005 3003 3002 3000 2999 2998 2996 2993 2991 2989 2988 2986 2984 2981
3006 3005 3004 3002 3000 2999 2997 2995 2993 2992 2990 2989 2987 2986 2983 2980 2978 2976 2975 2975 2973 2971
2995 2993 2992 2990 2988 2986 2984 2982 2980 2979 2977 2977 2975 2973 2970 2966 2963 2962 2960 2959 2959 2958
2983 2981 2978 2976 2975 2973 2971 2969 2968 2966 2964 2962 2962 2960 2956 2953 2948 2945 2945 2944 2942 2942
2970 2968 2965 2963 2961 2959 2957 2955 2953 2952 2949 2947 2947 2944 2941 2938 2933 2930 2929 2928 2927 2924
2958 2955 2953 2951 2948 2945 2942 2940 2938 2936 2934 2931 2931 2928 2924 2920 2916 2914 2913 2913 2911 2908
2945 2942 2940 2937 2934 2931 2927 2924 2922 2920 2917 2915 2912 2911 2907 2903 2898 2896 2895 2896 2894 2893
2932 2929 2926 2923 2920 2916 2912 2908 2906 2903 2901 2898 2895 2893 2889 2886 2881 2878 2877 2877 2877 2876